FW8061 Weather Reports


time (UTC)temp
C
wind
direction
speed
KPH
gust
KPH
rain 1hr
cm
rain 24hr
cm
rain mn
cm
humidity
%
barometer
mb
20260509132016 11 183 8.0 16.1 0.00 0.00 0.00 52 1011.7
20260509131020 11 191 6.4 12.9 0.00 0.00 0.00 54 1011.8
20260509130021 10 193 6.4 14.5 0.00 0.00 0.00 56 1011.9
20260509125017 10 193 6.4 12.9 0.00 0.00 0.00 57 1012.0
20260509124020 10 191 6.4 12.9 0.00 0.00 0.00 57 1012.0
20260509123018 9 173 6.4 12.9 0.00 0.00 0.00 60 1012.0
20260509122038 8 197 6.4 9.7 0.00 0.00 0.00 63 1011.9
20260509121018 8 184 4.8 11.3 0.00 0.00 0.00 64 1011.8
20260509120018 7 187 4.8 11.3 0.00 0.00 0.00 65 1012.0
20260509115018 7 187 4.8 8.0 0.00 0.00 0.00 67 1012.0
20260509114042 7 177 6.4 12.9 0.00 0.00 0.00 67 1011.9
20260509113040 6 182 6.4 12.9 0.00 0.00 0.00 70 1012.1
20260509112020 6 203 6.4 11.3 0.00 0.00 0.00 73 1012.1
20260509111039 5 210 6.4 11.3 0.00 0.00 0.00 74 1012.2
20260509110019 5 213 4.8 9.7 0.00 0.00 0.00 74 1012.1
20260509105019 4 201 6.4 11.3 0.00 0.00 0.00 74 1012.0
20260509104019 4 193 4.8 9.7 0.00 0.00 0.00 74 1011.9
20260509103019 4 188 4.8 8.0 0.00 0.00 0.00 74 1011.8
20260509102044 4 188 4.8 8.0 0.00 0.00 0.00 74 1011.7
20260509101019 4 205 4.8 8.0 0.00 0.00 0.00 74 1011.7
20260509100019 4 205 4.8 9.7 0.00 0.00 0.00 74 1011.6
20260509095040 4 194 4.8 8.0 0.00 0.00 0.00 74 1011.5
20260509094022 4 211 3.2 6.4 0.00 0.00 0.00 74 1011.5
20260509093024 4 209 3.2 4.8 0.00 0.00 0.00 74 1011.3
20260509092023 4 209 3.2 6.4 0.00 0.00 0.00 73 1011.3
20260509091023 4 210 3.2 3.2 0.00 0.00 0.00 73 1011.3
20260509090023 4 201 3.2 4.8 0.00 0.00 0.00 73 1011.2
20260509085024 4 188 3.2 8.0 0.00 0.00 0.00 72 1011.2
20260509084024 4 199 4.8 8.0 0.00 0.00 0.00 71 1011.3
20260509083021 4 199 4.8 11.3 0.00 0.00 0.00 70 1011.4
20260509082022 5 195 4.8 9.7 0.00 0.00 0.00 70 1011.2
20260509081024 5 196 4.8 8.0 0.00 0.00 0.00 69 1011.2
20260509080104 5 195 3.2 6.4 0.00 0.00 0.00 69 1011.2
20260509075024 5 193 4.8 6.4 0.00 0.00 0.00 69 1011.2
20260509074026 5 196 3.2 6.4 0.00 0.00 0.00 69 1011.3
20260509073024 5 201 3.2 6.4 0.00 0.00 0.00 69 1011.2
20260509072025 5 200 3.2 6.4 0.00 0.00 0.00 68 1011.2
20260509071208 6 187 3.2 6.4 0.00 0.00 0.00 68 1011.1
20260509070025 6 191 3.2 6.4 0.00 0.00 0.00 65 1011.0
20260509065026 6 182 3.2 6.4 0.00 0.00 0.00 64 1011.0
20260509064026 7 194 3.2 4.8 0.00 0.00 0.00 62 1011.0
20260509063043 7 184 4.8 8.0 0.00 0.00 0.00 60 1010.9
20260509062026 7 187 4.8 8.0 0.00 0.00 0.00 61 1010.9
20260509061027 7 207 3.2 4.8 0.00 0.00 0.00 61 1011.0
20260509060027 7 196 4.8 6.4 0.00 0.00 0.00 61 1011.0
20260509055026 7 189 4.8 6.4 0.00 0.00 0.00 60 1011.0
20260509054027 7 194 3.2 8.0 0.00 0.00 0.00 60 1011.1
20260509053023 7 194 4.8 9.7 0.00 0.00 0.00 59 1011.0
20260509052040 7 192 4.8 9.7 0.00 0.00 0.00 60 1011.0
20260509051019 7 199 4.8 9.7 0.00 0.00 0.00 60 1011.0
20260509050018 7 186 4.8 9.7 0.00 0.00 0.00 62 1011.0
20260509045040 7 189 4.8 11.3 0.00 0.00 0.00 63 1011.0
20260509044039 7 185 4.8 9.7 0.00 0.00 0.00 64 1011.0
20260509043020 8 180 4.8 8.0 0.00 0.00 0.00 61 1011.0
20260509042019 8 193 4.8 8.0 0.00 0.00 0.00 60 1011.0
20260509041019 8 188 3.2 8.0 0.00 0.00 0.00 61 1010.9
20260509040020 8 200 3.2 8.0 0.00 0.00 0.00 61 1010.9
20260509035019 8 197 3.2 6.4 0.00 0.00 0.00 59 1011.0
20260509034037 9 206 3.2 8.0 0.00 0.00 0.00 57 1010.9
20260509033020 9 209 3.2 8.0 0.00 0.00 0.00 57 1010.9
20260509032017 9 216 1.6 4.8 0.00 0.00 0.00 56 1010.8
20260509031017 9 215 3.2 9.7 0.00 0.00 0.00 56 1010.8
20260509030042 10 214 3.2 8.0 0.00 0.00 0.00 56 1010.8
20260509025018 10 214 4.8 8.0 0.00 0.00 0.00 56 1010.8
20260509024018 10 212 4.8 9.7 0.00 0.00 0.00 56 1010.8
20260509023018 10 211 3.2 6.4 0.00 0.00 0.00 55 1010.7
20260509022018 10 204 3.2 9.7 0.00 0.00 0.00 54 1010.7
20260509021019 10 227 3.2 6.4 0.00 0.00 0.00 53 1010.6
20260509020020 10 230 3.2 8.0 0.00 0.00 0.00 54 1010.6
20260509015019 10 217 1.6 6.4 0.00 0.00 0.00 54 1010.6
20260509014020 10 208 4.8 9.7 0.00 0.00 0.00 52 1010.4
20260509013039 10 208 3.2 8.0 0.00 0.00 0.00 52 1010.3
20260509012019 10 217 3.2 8.0 0.00 0.00 0.00 52 1010.2
20260509011019 10 225 4.8 12.9 0.00 0.00 0.00 52 1010.1
20260509010020 10 249 4.8 16.1 0.00 0.00 0.00 51 1010.0
20260509005020 10 240 4.8 9.7 0.00 0.00 0.00 51 1009.9
20260509004037 10 225 4.8 11.3 0.00 0.00 0.00 51 1009.7
20260509003020 10 213 4.8 12.9 0.00 0.00 0.00 51 1009.7
20260509002038 11 221 4.8 14.5 0.00 0.00 0.00 51 1009.6
20260509001018 11 210 4.8 11.3 0.00 0.00 0.00 49 1009.5
20260509000020 11 208 6.4 14.5 0.00 0.00 0.00 48 1009.4
20260508235019 11 205 4.8 12.9 0.00 0.00 0.00 47 1009.3
20260508234018 11 199 4.8 11.3 0.00 0.00 0.00 46 1009.2
20260508233021 11 217 3.2 9.7 0.00 0.00 0.00 46 1009.2
20260508232019 11 202 4.8 8.0 0.00 0.00 0.00 46 1009.1
20260508231020 12 216 3.2 8.0 0.00 0.00 0.00 44 1009.1
20260508230018 12 196 4.8 12.9 0.00 0.00 0.00 44 1009.1
20260508225020 11 243 4.8 12.9 0.00 0.00 0.00 45 1009.2
20260508224019 11 201 4.8 8.0 0.00 0.00 0.00 47 1009.2
20260508223039 11 217 4.8 9.7 0.00 0.00 0.00 47 1009.2
20260508222019 11 210 6.4 12.9 0.00 0.00 0.00 47 1009.1
20260508221037 11 249 4.8 12.9 0.00 0.00 0.00 46 1009.1
20260508220020 11 284 3.2 8.0 0.00 0.00 0.00 44 1009.0
20260508215040 11 184 4.8 11.3 0.00 0.00 0.00 48 1009.1
20260508214019 11 275 4.8 11.3 0.00 0.00 0.00 50 1009.3
20260508213017 11 213 3.2 9.7 0.00 0.00 0.00 51 1009.2
20260508212100 11 199 4.8 11.3 0.00 0.00 0.00 50 1009.1
20260508211017 11 199 6.4 11.3 0.00 0.00 0.00 49 1008.9
20260508210019 11 204 6.4 14.5 0.00 0.00 0.00 48 1008.8
20260508205021 11 195 6.4 11.3 0.00 0.00 0.00 46 1008.7
20260508204019 11 192 4.8 11.3 0.00 0.00 0.00 49 1008.7
20260508203018 11 201 6.4 11.3 0.00 0.00 0.00 51 1008.8
20260508202018 11 201 6.4 14.5 0.00 0.00 0.00 51 1008.9
20260508201018 11 208 4.8 14.5 0.00 0.00 0.00 50 1008.9
20260508200018 11 315 4.8 11.3 0.00 0.00 0.00 48 1008.8
20260508195039 10 320 6.4 12.9 0.00 0.00 0.00 49 1008.9
20260508194019 10 321 8.0 19.3 0.00 0.00 0.00 49 1009.0
20260508193019 11 312 8.0 22.5 0.00 0.00 0.00 47 1008.9
20260508192019 11 248 4.8 14.5 0.00 0.00 0.00 48 1008.9
20260508191019 11 221 6.4 12.9 0.00 0.00 0.00 47 1008.9
20260508190016 11 205 8.0 16.1 0.00 0.00 0.00 46 1008.9
20260508185020 11 321 6.4 14.5 0.00 0.00 0.00 48 1009.0
20260508184042 11 267 6.4 12.9 0.00 0.00 0.00 48 1009.1
20260508183017 10 300 9.7 17.7 0.00 0.00 0.00 49 1009.1
20260508182021 10 246 6.4 16.1 0.00 0.00 0.00 48 1009.2
20260508181038 10 280 6.4 17.7 0.00 0.00 0.00 48 1009.2
20260508180017 10 253 4.8 16.1 0.00 0.00 0.00 48 1009.2
20260508175018 10 303 6.4 19.3 0.00 0.00 0.00 46 1009.2
20260508174018 11 285 6.4 16.1 0.00 0.00 0.00 46 1009.2
20260508173018 10 262 6.4 12.9 0.00 0.00 0.00 48 1009.2
20260508172021 10 292 6.4 16.1 0.00 0.00 0.00 49 1009.3
20260508171040 10 267 6.4 16.1 0.00 0.00 0.00 50 1009.3
20260508170019 9 218 6.4 12.9 0.00 0.00 0.00 51 1009.3
20260508165038 9 306 4.8 11.3 0.00 0.00 0.00 51 1009.3
20260508164020 9 265 4.8 11.3 0.00 0.00 0.00 50 1009.4
20260508162019 9 224 3.2 9.7 0.00 0.00 0.00 50 1009.4
20260508161020 9 298 6.4 11.3 0.00 0.00 0.00 49 1009.4
20260508160021 9 307 4.8 12.9 0.00 0.00 0.00 49 1009.4
20260508155017 9 327 6.4 12.9 0.00 0.00 0.00 49 1009.4
20260508154020 10 257 3.2 12.9 0.00 0.00 0.00 48 1009.4
20260508153040 10 273 4.8 12.9 0.00 0.00 0.00 47 1009.5
20260508152017 10 307 8.0 14.5 0.00 0.00 0.00 49 1009.6
20260508151021 9 299 4.8 12.9 0.00 0.00 0.00 51 1009.7
20260508150019 8 270 4.8 14.5 0.00 0.00 0.00 54 1009.6
20260508145019 8 322 6.4 14.5 0.00 0.00 0.00 56 1009.6
20260508144021 8 292 4.8 12.9 0.00 0.00 0.00 58 1009.7
20260508143018 8 301 4.8 9.7 0.00 0.00 0.00 59 1009.7
20260508142018 8 298 6.4 16.1 0.00 0.00 0.00 59 1009.7
20260508141018 8 319 4.8 11.3 0.00 0.00 0.00 60 1009.8
20260508140018 7 301 3.2 9.7 0.00 0.00 0.00 62 1009.8
20260508135039 7 314 4.8 9.7 0.00 0.00 0.00 63 1009.7
20260508134022 7 322 6.4 12.9 0.00 0.00 0.00 63 1009.7
20260508133022 8 321 6.4 11.3 0.00 0.00 0.00 63 1009.7